WMT634 LEBL-LUKK

Flight info

Callsign WMT634
Flight time 2h 53m
Altitude 33000
Route DIPES N725 OSPOK DCT NOLVI DCT ORKUM/N0455F340 DCT ELSAG DCT ALG DCT MINKA DCT POZZO DCT TINIX DCT XOLTA/N0451F350 DCT MAVIT DCT TOMET DCT BUSES
Aircraft A321/M-SDE3FGHIRWY/LB1

Departure

Time 2026-04-29 16:20
Airport Josep Tarradellas Barcelona-El Prat Airport (LEBL)

Arrival

Time 2026-04-29 19:14
Airport Chişinău International Airport (LUKK)
Time Latitude Longitude Altitude Speed Heading
2026-04-29 15:45 41.30333 2.08504 20 ft 0 kts 245°
2026-04-29 16:10 41.30331 2.08499 20 ft 2 kts 246°
2026-04-29 16:11 41.30317 2.08458 19 ft 6 kts 242°
2026-04-29 16:11 41.30275 2.08447 18 ft 9 kts 166°
2026-04-29 16:11 41.30214 2.08392 18 ft 14 kts 242°
2026-04-29 16:11 41.30171 2.08258 18 ft 16 kts 245°
2026-04-29 16:12 41.30120 2.08115 17 ft 18 kts 246°
2026-04-29 16:12 41.30089 2.08020 17 ft 15 kts 245°
2026-04-29 16:12 41.30013 2.08006 18 ft 8 kts 156°
2026-04-29 16:12 41.29949 2.08043 18 ft 12 kts 157°
2026-04-29 16:13 41.29857 2.08088 18 ft 16 kts 161°
2026-04-29 16:13 41.29754 2.08142 18 ft 15 kts 156°
2026-04-29 16:13 41.29657 2.08202 17 ft 15 kts 155°
2026-04-29 16:13 41.29565 2.08257 15 ft 14 kts 155°
2026-04-29 16:14 41.29488 2.08306 19 ft 11 kts 154°
2026-04-29 16:14 41.29419 2.08349 18 ft 11 kts 156°
2026-04-29 16:14 41.29352 2.08388 19 ft 11 kts 156°
2026-04-29 16:14 41.29283 2.08428 20 ft 11 kts 155°
2026-04-29 16:15 41.29219 2.08451 20 ft 9 kts 188°
2026-04-29 16:15 41.29158 2.08426 20 ft 9 kts 199°
2026-04-29 16:15 41.29095 2.08397 19 ft 9 kts 199°
2026-04-29 16:15 41.29029 2.08366 18 ft 11 kts 199°
2026-04-29 16:16 41.28943 2.08327 18 ft 14 kts 198°
2026-04-29 16:16 41.28845 2.08283 17 ft 16 kts 199°
2026-04-29 16:16 41.28732 2.08231 16 ft 17 kts 198°
2026-04-29 16:16 41.28674 2.08179 16 ft 10 kts 242°
2026-04-29 16:17 41.28640 2.08081 19 ft 14 kts 246°
2026-04-29 16:17 41.28594 2.07946 16 ft 17 kts 246°
2026-04-29 16:17 41.28546 2.07805 16 ft 17 kts 245°
2026-04-29 16:17 41.28496 2.07661 16 ft 17 kts 245°
2026-04-29 16:18 41.28445 2.07515 16 ft 17 kts 245°
2026-04-29 16:18 41.28397 2.07374 16 ft 16 kts 242°
2026-04-29 16:18 41.28316 2.07345 16 ft 12 kts 158°
2026-04-29 16:18 41.28253 2.07378 17 ft 7 kts 159°
2026-04-29 16:19 41.28225 2.07408 17 ft 4 kts 103°
2026-04-29 16:19 41.28229 2.07429 18 ft 0 kts 66°
2026-04-29 16:19 41.28254 2.07504 19 ft 35 kts 65°
2026-04-29 16:20 41.28453 2.08085 20 ft 101 kts 65°
2026-04-29 16:20 41.28825 2.09167 20 ft 154 kts 65°
2026-04-29 16:20 41.29268 2.10506 596 ft 155 kts 69°
2026-04-29 16:20 41.29380 2.11932 1263 ft 157 kts 93°
2026-04-29 16:21 41.29264 2.13441 1543 ft 175 kts 97°
2026-04-29 16:21 41.29075 2.15146 1738 ft 195 kts 98°
2026-04-29 16:21 41.28881 2.16963 2167 ft 200 kts 97°
2026-04-29 16:21 41.28697 2.18808 2681 ft 202 kts 99°
2026-04-29 16:22 41.28515 2.20677 3174 ft 204 kts 98°
2026-04-29 16:22 41.28335 2.22550 3635 ft 207 kts 98°
2026-04-29 16:22 41.28152 2.24471 4063 ft 211 kts 98°
2026-04-29 16:22 41.27967 2.26433 4502 ft 215 kts 98°
2026-04-29 16:23 41.27781 2.28422 4942 ft 218 kts 99°
2026-04-29 16:23 41.27592 2.30434 5375 ft 221 kts 100°
2026-04-29 16:23 41.27393 2.32477 5714 ft 229 kts 100°
2026-04-29 16:23 41.27162 2.34669 5853 ft 249 kts 100°
2026-04-29 16:24 41.26911 2.37002 6138 ft 263 kts 101°
2026-04-29 16:24 41.26645 2.39468 6538 ft 274 kts 101°
2026-04-29 16:24 41.26372 2.41957 7114 ft 278 kts 101°
2026-04-29 16:24 41.26003 2.44493 7707 ft 281 kts 104°
2026-04-29 16:25 41.25569 2.47036 8343 ft 283 kts 107°
2026-04-29 16:25 41.25107 2.49594 8962 ft 287 kts 107°
2026-04-29 16:25 41.24632 2.52182 9590 ft 290 kts 105°
2026-04-29 16:25 41.24153 2.54803 10153 ft 295 kts 105°
2026-04-29 16:26 41.23657 2.57542 10312 ft 315 kts 106°
2026-04-29 16:26 41.23131 2.60468 10436 ft 335 kts 105°
2026-04-29 16:26 41.22579 2.63570 10558 ft 355 kts 105°
2026-04-29 16:26 41.22001 2.66838 10680 ft 372 kts 104°
2026-04-29 16:27 41.21400 2.70259 10860 ft 387 kts 105°
2026-04-29 16:27 41.20785 2.73765 11311 ft 393 kts 105°
2026-04-29 16:27 41.20159 2.77314 11836 ft 396 kts 105°
2026-04-29 16:27 41.19528 2.80892 12393 ft 400 kts 104°
2026-04-29 16:28 41.18890 2.84504 12950 ft 403 kts 105°
2026-04-29 16:28 41.18245 2.88142 13509 ft 407 kts 105°
2026-04-29 16:28 41.17592 2.91812 14038 ft 410 kts 105°
2026-04-29 16:28 41.16934 2.95506 14542 ft 413 kts 104°
2026-04-29 16:29 41.16268 2.99225 15043 ft 416 kts 105°
2026-04-29 16:29 41.15594 3.02971 15565 ft 419 kts 105°
2026-04-29 16:29 41.14916 3.06737 16084 ft 421 kts 104°
2026-04-29 16:29 41.14233 3.10522 16599 ft 424 kts 105°
2026-04-29 16:30 41.13544 3.14336 17078 ft 426 kts 104°
2026-04-29 16:30 41.12858 3.18116 17529 ft 429 kts 105°
2026-04-29 16:30 41.12155 3.21976 17979 ft 432 kts 105°
2026-04-29 16:30 41.11450 3.25858 18393 ft 435 kts 105°
2026-04-29 16:31 41.10739 3.29768 18766 ft 437 kts 105°
2026-04-29 16:31 41.10025 3.33693 18917 ft 438 kts 105°
2026-04-29 16:31 41.09309 3.37620 18966 ft 438 kts 104°
2026-04-29 16:31 41.08593 3.41539 18964 ft 438 kts 104°
2026-04-29 16:32 41.07876 3.45459 18961 ft 438 kts 104°
2026-04-29 16:32 41.07399 3.48059 18964 ft 439 kts 105°
2026-04-29 16:32 41.06671 3.51998 18964 ft 440 kts 104°
2026-04-29 16:32 41.05944 3.55932 18964 ft 440 kts 105°
2026-04-29 16:33 41.04527 3.63819 18964 ft 440 kts 104°
2026-04-29 16:33 41.03832 3.67758 18964 ft 440 kts 104°
2026-04-29 16:33 41.03134 3.71706 18964 ft 440 kts 104°
2026-04-29 16:34 41.02433 3.75654 18964 ft 440 kts 104°
2026-04-29 16:34 41.01729 3.79590 18964 ft 440 kts 104°
2026-04-29 16:34 41.01021 3.83528 18961 ft 439 kts 104°
2026-04-29 16:34 41.00312 3.87460 18964 ft 439 kts 104°
2026-04-29 16:35 40.99601 3.91389 18964 ft 438 kts 104°
2026-04-29 16:35 40.98890 3.95306 18964 ft 438 kts 105°
2026-04-29 16:35 40.98176 3.99232 18964 ft 439 kts 104°
2026-04-29 16:35 40.97472 4.03104 18964 ft 438 kts 104°
2026-04-29 16:36 40.96759 4.07021 18964 ft 438 kts 104°
2026-04-29 16:36 40.96040 4.10939 18964 ft 439 kts 105°
2026-04-29 16:36 40.95316 4.14857 18964 ft 439 kts 104°
2026-04-29 16:36 40.94592 4.18772 18964 ft 438 kts 104°
2026-04-29 16:37 40.93871 4.22691 18964 ft 438 kts 104°
2026-04-29 16:37 40.93153 4.26599 18964 ft 438 kts 104°
2026-04-29 16:37 40.92433 4.30512 18966 ft 437 kts 104°
2026-04-29 16:37 40.91956 4.33099 18964 ft 437 kts 104°
2026-04-29 16:38 40.90989 4.38322 18964 ft 438 kts 105°
2026-04-29 16:38 40.90261 4.42232 18964 ft 437 kts 104°
2026-04-29 16:38 40.89533 4.46128 18964 ft 437 kts 105°
2026-04-29 16:38 40.88805 4.50035 18964 ft 438 kts 105°
2026-04-29 16:39 40.88077 4.53940 18967 ft 437 kts 104°
2026-04-29 16:39 40.87349 4.57839 18964 ft 437 kts 104°
2026-04-29 16:39 40.86615 4.61751 18967 ft 440 kts 104°
2026-04-29 16:39 40.85885 4.65665 18966 ft 439 kts 103°
2026-04-29 16:40 40.85317 4.70740 18964 ft 440 kts 97°
2026-04-29 16:40 40.84956 4.74756 18967 ft 440 kts 98°
2026-04-29 16:40 40.84590 4.78770 18967 ft 440 kts 97°
2026-04-29 16:40 40.84222 4.82778 18966 ft 440 kts 98°
2026-04-29 16:41 40.83848 4.86794 18966 ft 440 kts 97°
2026-04-29 16:41 40.83472 4.90801 18966 ft 440 kts 98°
2026-04-29 16:41 40.83095 4.94810 18966 ft 440 kts 98°
2026-04-29 16:41 40.82720 4.98819 18967 ft 439 kts 97°
2026-04-29 16:42 40.82344 5.02816 18966 ft 439 kts 98°
2026-04-29 16:42 40.82092 5.05466 18966 ft 439 kts 98°
2026-04-29 16:42 40.81710 5.09468 18966 ft 439 kts 97°
2026-04-29 16:42 40.81329 5.13459 18966 ft 439 kts 97°
2026-04-29 16:43 40.80944 5.17457 18966 ft 439 kts 98°
2026-04-29 16:43 40.80554 5.21455 18966 ft 439 kts 97°
2026-04-29 16:43 40.80162 5.25453 18966 ft 439 kts 97°
2026-04-29 16:43 40.79775 5.29439 18966 ft 439 kts 98°
2026-04-29 16:44 40.79389 5.33430 18967 ft 439 kts 97°
2026-04-29 16:44 40.79002 5.37418 18966 ft 438 kts 98°
2026-04-29 16:44 40.78614 5.41409 18966 ft 439 kts 97°
2026-04-29 16:44 40.78225 5.45402 18967 ft 439 kts 98°
2026-04-29 16:45 40.77835 5.49394 18968 ft 440 kts 98°
2026-04-29 16:45 40.77438 5.53401 18968 ft 440 kts 98°
2026-04-29 16:45 40.77038 5.57413 18966 ft 441 kts 98°
2026-04-29 16:45 40.76638 5.61412 18967 ft 441 kts 98°
2026-04-29 16:46 40.76232 5.65429 18967 ft 441 kts 98°
2026-04-29 16:46 40.75827 5.69437 18967 ft 441 kts 98°
2026-04-29 16:46 40.75433 5.73385 18966 ft 441 kts 98°
2026-04-29 16:46 40.75035 5.77388 18967 ft 441 kts 98°
2026-04-29 16:47 40.74632 5.81409 18961 ft 441 kts 98°
2026-04-29 16:47 40.74226 5.85420 19061 ft 444 kts 98°
2026-04-29 16:47 40.73809 5.89465 19499 ft 445 kts 98°
2026-04-29 16:47 40.73388 5.93510 19916 ft 447 kts 98°
2026-04-29 16:48 40.72966 5.97571 20336 ft 449 kts 98°
2026-04-29 16:48 40.72544 6.01662 20745 ft 450 kts 98°
2026-04-29 16:48 40.72123 6.05753 21147 ft 452 kts 98°
2026-04-29 16:48 40.71699 6.09865 21520 ft 454 kts 98°
2026-04-29 16:49 40.71270 6.13989 21936 ft 455 kts 98°
2026-04-29 16:49 40.70838 6.18124 22346 ft 456 kts 99°
2026-04-29 16:49 40.70401 6.22275 22732 ft 458 kts 99°
2026-04-29 16:49 40.69959 6.26436 23110 ft 459 kts 99°
2026-04-29 16:50 40.69512 6.30612 23478 ft 461 kts 99°
2026-04-29 16:50 40.69063 6.34794 23785 ft 462 kts 99°
2026-04-29 16:50 40.68612 6.38992 24086 ft 464 kts 99°
2026-04-29 16:50 40.68164 6.43204 24393 ft 465 kts 99°
2026-04-29 16:51 40.67713 6.47436 24696 ft 466 kts 99°
2026-04-29 16:51 40.67258 6.51671 25009 ft 468 kts 99°
2026-04-29 16:51 40.66798 6.55914 25319 ft 469 kts 99°
2026-04-29 16:51 40.66332 6.60172 25622 ft 470 kts 99°
2026-04-29 16:52 40.65864 6.64426 26018 ft 469 kts 99°
2026-04-29 16:52 40.65401 6.68671 26441 ft 467 kts 99°
2026-04-29 16:52 40.64946 6.72842 26860 ft 465 kts 99°
2026-04-29 16:52 40.64486 6.77051 27281 ft 464 kts 99°
2026-04-29 16:53 40.64019 6.81299 27705 ft 462 kts 99°
2026-04-29 16:53 40.63562 6.85423 28111 ft 461 kts 99°
2026-04-29 16:53 40.63098 6.89587 28482 ft 460 kts 99°
2026-04-29 16:53 40.62632 6.93754 28878 ft 459 kts 99°
2026-04-29 16:54 40.62166 6.97901 29287 ft 458 kts 99°
2026-04-29 16:54 40.61700 7.02039 29700 ft 456 kts 99°
2026-04-29 16:54 40.61234 7.06161 30099 ft 455 kts 99°
2026-04-29 16:54 40.60767 7.10271 30423 ft 454 kts 100°
2026-04-29 16:55 40.60299 7.14381 30717 ft 454 kts 100°
2026-04-29 16:55 40.59832 7.18492 30991 ft 454 kts 100°
2026-04-29 16:55 40.59364 7.22601 31264 ft 454 kts 100°
2026-04-29 16:55 40.58892 7.26715 31540 ft 455 kts 100°
2026-04-29 16:56 40.58418 7.30822 31816 ft 455 kts 100°
2026-04-29 16:56 40.57942 7.34939 32090 ft 455 kts 101°
2026-04-29 16:56 40.57464 7.39056 32359 ft 455 kts 101°
2026-04-29 16:56 40.56987 7.43176 32620 ft 456 kts 101°
2026-04-29 16:57 40.56608 7.47313 32882 ft 457 kts 95°
2026-04-29 16:57 40.56675 7.51502 33131 ft 460 kts 86°
2026-04-29 16:57 40.57047 7.55684 33373 ft 461 kts 85°
2026-04-29 16:57 40.57418 7.59873 33608 ft 462 kts 85°
2026-04-29 16:58 40.57778 7.64026 33743 ft 464 kts 85°
2026-04-29 16:58 40.58138 7.68259 33891 ft 467 kts 85°
2026-04-29 16:58 40.58498 7.72516 34065 ft 469 kts 85°
2026-04-29 16:58 40.58855 7.76781 34259 ft 469 kts 85°
2026-04-29 16:59 40.59214 7.81046 34465 ft 469 kts 85°
2026-04-29 16:59 40.59576 7.85316 34673 ft 470 kts 85°
2026-04-29 16:59 40.59938 7.89586 34875 ft 470 kts 85°
2026-04-29 16:59 40.60301 7.93873 34954 ft 472 kts 85°
2026-04-29 17:00 40.61020 8.02483 34969 ft 475 kts 85°
2026-04-29 17:00 40.61738 8.11131 34972 ft 476 kts 85°
2026-04-29 17:01 40.62441 8.19771 34971 ft 473 kts 85°
2026-04-29 17:01 40.64001 8.28149 34976 ft 473 kts 68°
2026-04-29 17:02 40.66543 8.36155 34973 ft 474 kts 68°
2026-04-29 17:02 40.69061 8.44179 34960 ft 474 kts 68°
2026-04-29 17:03 40.71575 8.52224 34969 ft 475 kts 68°
2026-04-29 17:03 40.74090 8.60276 34973 ft 475 kts 68°
2026-04-29 17:04 40.76579 8.68283 34973 ft 475 kts 69°
2026-04-29 17:04 40.79079 8.76354 34966 ft 475 kts 68°
2026-04-29 17:05 40.81569 8.84431 34990 ft 474 kts 69°
2026-04-29 17:05 40.84054 8.92480 34992 ft 472 kts 68°
2026-04-29 17:06 40.86544 9.00495 34990 ft 471 kts 68°
2026-04-29 17:06 40.89026 9.08508 34989 ft 471 kts 68°
2026-04-29 17:07 40.91496 9.16519 34986 ft 471 kts 68°
2026-04-29 17:07 40.93958 9.24548 34986 ft 471 kts 68°
2026-04-29 17:08 40.96480 9.32550 34988 ft 472 kts 66°
2026-04-29 17:08 40.99195 9.40461 35017 ft 471 kts 65°
2026-04-29 17:09 41.01933 9.48341 35014 ft 471 kts 65°
2026-04-29 17:09 41.04615 9.56273 35005 ft 472 kts 66°
2026-04-29 17:10 41.07272 9.64232 35000 ft 473 kts 66°
2026-04-29 17:10 41.09933 9.72213 35008 ft 473 kts 66°
2026-04-29 17:11 41.12576 9.80140 35006 ft 473 kts 66°
2026-04-29 17:11 41.15251 9.88189 35003 ft 474 kts 66°
2026-04-29 17:12 41.17885 9.96145 35003 ft 474 kts 66°
2026-04-29 17:12 41.20104 10.02869 35015 ft 475 kts 66°
2026-04-29 17:13 41.23178 10.12215 35016 ft 475 kts 66°
2026-04-29 17:13 41.25822 10.20269 35022 ft 475 kts 66°
2026-04-29 17:14 41.28462 10.28330 35015 ft 476 kts 66°
2026-04-29 17:14 41.31107 10.36408 35027 ft 477 kts 66°
2026-04-29 17:15 41.33749 10.44501 35021 ft 477 kts 66°
2026-04-29 17:15 41.36374 10.52615 35023 ft 477 kts 66°
2026-04-29 17:16 41.38994 10.60737 35028 ft 478 kts 66°
2026-04-29 17:16 41.41621 10.68873 35026 ft 478 kts 66°
2026-04-29 17:17 41.44250 10.77022 35030 ft 479 kts 66°
2026-04-29 17:17 41.46873 10.85180 35035 ft 479 kts 66°
2026-04-29 17:18 41.49471 10.93301 35042 ft 480 kts 66°
2026-04-29 17:18 41.52078 11.01493 35036 ft 480 kts 66°
2026-04-29 17:19 41.54684 11.09700 35039 ft 480 kts 66°
2026-04-29 17:19 41.57284 11.17911 35043 ft 480 kts 66°
2026-04-29 17:20 41.59887 11.26136 35043 ft 481 kts 66°
2026-04-29 17:20 41.62477 11.34369 35047 ft 481 kts 66°
2026-04-29 17:21 41.65064 11.42608 35054 ft 481 kts 66°
2026-04-29 17:21 41.67652 11.50863 35057 ft 481 kts 66°
2026-04-29 17:22 41.70232 11.59129 35053 ft 481 kts 66°
2026-04-29 17:22 41.72804 11.67402 35059 ft 481 kts 66°
2026-04-29 17:23 41.75357 11.75628 35073 ft 482 kts 66°
2026-04-29 17:23 41.77919 11.83915 35116 ft 482 kts 66°
2026-04-29 17:24 41.80478 11.92212 35171 ft 482 kts 65°
2026-04-29 17:24 41.83032 12.00524 35205 ft 482 kts 66°
2026-04-29 17:25 41.85581 12.08839 35236 ft 482 kts 66°
2026-04-29 17:25 41.88126 12.17172 35239 ft 483 kts 66°
2026-04-29 17:26 41.89395 12.21338 35069 ft 483 kts 66°
2026-04-29 17:26 41.90666 12.25515 35070 ft 483 kts 66°
2026-04-29 17:26 41.93193 12.33861 35074 ft 483 kts 66°
2026-04-29 17:27 41.95704 12.42170 35089 ft 483 kts 66°
2026-04-29 17:27 41.98231 12.50543 35083 ft 484 kts 66°
2026-04-29 17:28 42.00750 12.58935 35079 ft 484 kts 66°
2026-04-29 17:28 42.03265 12.67335 35080 ft 484 kts 66°
2026-04-29 17:29 42.05776 12.75747 35081 ft 485 kts 66°
2026-04-29 17:29 42.07855 12.82745 35092 ft 485 kts 66°
2026-04-29 17:30 42.10781 12.92592 35095 ft 485 kts 66°
2026-04-29 17:30 42.13278 13.01025 35097 ft 485 kts 66°
2026-04-29 17:31 42.15761 13.09466 35099 ft 484 kts 66°
2026-04-29 17:31 42.17855 13.18045 35099 ft 486 kts 72°
2026-04-29 17:32 42.19748 13.26792 35097 ft 486 kts 72°
2026-04-29 17:32 42.21643 13.35549 35092 ft 486 kts 72°
2026-04-29 17:33 42.23532 13.44311 35098 ft 487 kts 72°
2026-04-29 17:33 42.25415 13.53088 35083 ft 487 kts 72°
2026-04-29 17:34 42.27296 13.61880 35081 ft 488 kts 72°
2026-04-29 17:34 42.29172 13.70688 35070 ft 488 kts 72°
2026-04-29 17:35 42.31965 13.83926 35059 ft 488 kts 72°
2026-04-29 17:36 42.33805 13.92690 35061 ft 488 kts 72°
2026-04-29 17:36 42.35651 14.01508 35055 ft 487 kts 72°
2026-04-29 17:37 42.37501 14.10333 35055 ft 488 kts 72°
2026-04-29 17:37 42.39336 14.19166 35052 ft 488 kts 72°
2026-04-29 17:38 42.41161 14.28015 35050 ft 488 kts 72°
2026-04-29 17:38 42.42982 14.36867 35048 ft 488 kts 72°
2026-04-29 17:39 42.44499 14.44230 35051 ft 488 kts 72°
2026-04-29 17:39 42.46312 14.53096 35049 ft 489 kts 72°
2026-04-29 17:40 42.48113 14.61971 35048 ft 489 kts 72°
2026-04-29 17:40 42.49916 14.70847 35047 ft 489 kts 72°
2026-04-29 17:41 42.51714 14.79738 35038 ft 489 kts 72°
2026-04-29 17:41 42.53499 14.88644 35047 ft 490 kts 72°
2026-04-29 17:42 42.55277 14.97555 35039 ft 490 kts 72°
2026-04-29 17:42 42.57045 15.06419 35040 ft 490 kts 72°
2026-04-29 17:43 42.58816 15.15351 35044 ft 490 kts 73°
2026-04-29 17:43 42.60576 15.24296 35052 ft 490 kts 73°
2026-04-29 17:44 42.62333 15.33246 35066 ft 491 kts 73°
2026-04-29 17:44 42.64089 15.42200 35056 ft 491 kts 73°
2026-04-29 17:45 42.65838 15.51168 35043 ft 491 kts 73°
2026-04-29 17:45 42.67573 15.60149 35048 ft 491 kts 73°
2026-04-29 17:46 42.69295 15.69129 35040 ft 491 kts 73°
2026-04-29 17:46 42.71859 15.77635 35047 ft 484 kts 56°
2026-04-29 17:47 42.75600 15.85200 35058 ft 482 kts 52°
2026-04-29 17:47 42.79367 15.92757 35049 ft 483 kts 52°
2026-04-29 17:48 42.83124 16.00338 35044 ft 483 kts 52°
2026-04-29 17:48 42.86853 16.07876 35041 ft 483 kts 52°
2026-04-29 17:49 42.90615 16.15476 35057 ft 484 kts 52°
2026-04-29 17:49 42.94376 16.23098 35052 ft 485 kts 52°
2026-04-29 17:50 42.98136 16.30745 35054 ft 485 kts 52°
2026-04-29 17:50 43.01894 16.38398 35052 ft 485 kts 52°
2026-04-29 17:51 43.05655 16.46071 35071 ft 486 kts 52°
2026-04-29 17:51 43.09411 16.53763 35070 ft 487 kts 52°
2026-04-29 17:52 43.13167 16.61480 35063 ft 487 kts 52°
2026-04-29 17:52 43.16921 16.69199 35078 ft 487 kts 53°
2026-04-29 17:53 43.20669 16.76939 35081 ft 488 kts 52°
2026-04-29 17:53 43.24418 16.84700 35077 ft 488 kts 52°
2026-04-29 17:54 43.28131 16.92412 35057 ft 488 kts 53°
2026-04-29 17:54 43.31869 17.00184 35060 ft 488 kts 53°
2026-04-29 17:55 43.35608 17.07970 35079 ft 489 kts 52°
2026-04-29 17:55 43.39345 17.15779 35073 ft 489 kts 52°
2026-04-29 17:56 43.43077 17.23599 35076 ft 489 kts 52°
2026-04-29 17:56 43.46803 17.31439 35083 ft 490 kts 53°
2026-04-29 17:57 43.50526 17.39296 35079 ft 490 kts 53°
2026-04-29 17:57 43.54250 17.47160 35095 ft 490 kts 53°
2026-04-29 17:58 43.57965 17.55036 35097 ft 490 kts 53°
2026-04-29 17:58 43.61676 17.62916 35108 ft 490 kts 53°
2026-04-29 17:59 43.65360 17.70755 35122 ft 490 kts 53°
2026-04-29 17:59 43.69059 17.78673 35128 ft 491 kts 53°
2026-04-29 18:00 43.72760 17.86606 35137 ft 492 kts 52°
2026-04-29 18:00 43.76469 17.94564 35169 ft 492 kts 52°
2026-04-29 18:01 43.80166 18.02524 35182 ft 492 kts 52°
2026-04-29 18:01 43.83859 18.10501 35178 ft 491 kts 53°
2026-04-29 18:02 43.87541 18.18486 35186 ft 492 kts 53°
2026-04-29 18:02 43.91216 18.26469 35214 ft 491 kts 52°
2026-04-29 18:03 43.94892 18.34459 35194 ft 491 kts 52°
2026-04-29 18:03 43.98554 18.42453 35190 ft 490 kts 53°
2026-04-29 18:04 44.02202 18.50457 35189 ft 490 kts 53°
2026-04-29 18:04 44.05848 18.58459 35212 ft 490 kts 53°
2026-04-29 18:05 44.09488 18.66478 35220 ft 491 kts 53°
2026-04-29 18:05 44.13130 18.74514 35214 ft 491 kts 53°
2026-04-29 18:06 44.16771 18.82566 35220 ft 491 kts 53°
2026-04-29 18:06 44.20408 18.90641 35258 ft 492 kts 53°
2026-04-29 18:07 44.24037 18.98731 35236 ft 492 kts 53°
2026-04-29 18:07 44.27639 19.06784 35234 ft 493 kts 52°
2026-04-29 18:08 44.31265 19.14901 35244 ft 493 kts 53°
2026-04-29 18:08 44.34882 19.23033 35266 ft 493 kts 52°
2026-04-29 18:09 44.38496 19.31174 35254 ft 493 kts 52°
2026-04-29 18:09 44.42105 19.39314 35245 ft 492 kts 52°
2026-04-29 18:10 44.45708 19.47469 35241 ft 493 kts 52°
2026-04-29 18:10 44.49311 19.55633 35240 ft 493 kts 52°
2026-04-29 18:11 44.52904 19.63812 35236 ft 493 kts 52°
2026-04-29 18:11 44.56487 19.72012 35236 ft 493 kts 52°
2026-04-29 18:12 44.60067 19.80231 35233 ft 494 kts 52°
2026-04-29 18:12 44.63649 19.88465 35252 ft 495 kts 52°
2026-04-29 18:13 44.67235 19.96718 35228 ft 495 kts 52°
2026-04-29 18:13 44.70813 20.04990 35217 ft 496 kts 52°
2026-04-29 18:14 44.74393 20.13283 35210 ft 496 kts 52°
2026-04-29 18:14 44.77949 20.21530 35230 ft 497 kts 52°
2026-04-29 18:15 44.81522 20.29864 35224 ft 497 kts 52°
2026-04-29 18:15 44.85086 20.38206 35219 ft 497 kts 52°
2026-04-29 18:16 44.88643 20.46557 35211 ft 497 kts 52°
2026-04-29 18:16 44.92208 20.54915 35208 ft 497 kts 52°
2026-04-29 18:17 44.95760 20.63278 35202 ft 497 kts 53°
2026-04-29 18:17 44.99307 20.71678 35208 ft 498 kts 52°
2026-04-29 18:18 45.02847 20.80076 35201 ft 497 kts 53°
2026-04-29 18:18 45.06380 20.88490 35214 ft 497 kts 52°
2026-04-29 18:19 45.09906 20.96906 35200 ft 498 kts 52°
2026-04-29 18:19 45.13429 21.05344 35190 ft 498 kts 53°
2026-04-29 18:20 45.16921 21.13737 35182 ft 498 kts 53°
2026-04-29 18:20 45.20435 21.22190 35203 ft 498 kts 52°
2026-04-29 18:21 45.23920 21.30690 35198 ft 501 kts 56°
2026-04-29 18:21 45.26830 21.39731 35191 ft 504 kts 59°
2026-04-29 18:22 45.29669 21.48842 35187 ft 505 kts 61°
2026-04-29 18:22 45.32332 21.58098 35212 ft 507 kts 62°
2026-04-29 18:23 45.34886 21.67445 35199 ft 507 kts 63°
2026-04-29 18:23 45.37453 21.76785 35192 ft 507 kts 62°
2026-04-29 18:24 45.40066 21.86101 35188 ft 507 kts 62°
2026-04-29 18:24 45.42685 21.95429 35186 ft 508 kts 62°
2026-04-29 18:25 45.45282 22.04791 35185 ft 509 kts 63°
2026-04-29 18:25 45.47862 22.14171 35178 ft 509 kts 62°
2026-04-29 18:26 45.50441 22.23573 35180 ft 509 kts 63°
2026-04-29 18:26 45.53018 22.32982 35184 ft 509 kts 62°
2026-04-29 18:27 45.55578 22.42341 35228 ft 510 kts 63°
2026-04-29 18:27 45.58156 22.51806 35204 ft 512 kts 63°
2026-04-29 18:28 45.60725 22.61287 35190 ft 513 kts 63°
2026-04-29 18:28 45.63286 22.70792 35185 ft 513 kts 63°
2026-04-29 18:29 45.65842 22.80311 35179 ft 513 kts 63°
2026-04-29 18:29 45.68381 22.89830 35195 ft 512 kts 63°
2026-04-29 18:30 45.70908 22.99329 35182 ft 511 kts 63°
2026-04-29 18:30 45.73432 23.08830 35186 ft 510 kts 64°
2026-04-29 18:31 45.75951 23.18318 35186 ft 510 kts 64°
2026-04-29 18:31 45.78030 23.26221 35189 ft 510 kts 64°
2026-04-29 18:32 45.80515 23.35728 35174 ft 508 kts 64°
2026-04-29 18:32 45.84219 23.49910 35170 ft 506 kts 64°
2026-04-29 18:33 45.87079 23.60916 35170 ft 507 kts 64°
2026-04-29 18:33 45.89527 23.70402 35167 ft 507 kts 64°
2026-04-29 18:34 45.91164 23.76761 35210 ft 508 kts 64°
2026-04-29 18:34 45.94024 23.87880 35163 ft 508 kts 64°
2026-04-29 18:35 45.96448 23.97351 35161 ft 508 kts 64°
2026-04-29 18:35 45.98873 24.06905 35164 ft 509 kts 64°
2026-04-29 18:36 46.01292 24.16480 35169 ft 509 kts 64°
2026-04-29 18:36 46.03707 24.26058 35171 ft 509 kts 64°
2026-04-29 18:37 46.06118 24.35628 35173 ft 509 kts 64°
2026-04-29 18:37 46.08523 24.45216 35181 ft 509 kts 64°
2026-04-29 18:38 46.10919 24.54816 35181 ft 510 kts 65°
2026-04-29 18:38 46.13297 24.64442 35186 ft 509 kts 65°
2026-04-29 18:39 46.15668 24.74066 35189 ft 509 kts 65°
2026-04-29 18:39 46.18026 24.83624 35207 ft 509 kts 65°
2026-04-29 18:40 46.20392 24.93254 35204 ft 509 kts 65°
2026-04-29 18:40 46.22739 25.02895 35204 ft 509 kts 65°
2026-04-29 18:41 46.27406 25.22151 35180 ft 505 kts 65°
2026-04-29 18:42 46.29717 25.31747 35212 ft 506 kts 65°
2026-04-29 18:42 46.32022 25.41365 35220 ft 506 kts 66°
2026-04-29 18:43 46.34319 25.50993 35245 ft 506 kts 66°
2026-04-29 18:43 46.36590 25.60646 35277 ft 508 kts 69°
2026-04-29 18:44 46.37677 25.70815 35265 ft 516 kts 86°
2026-04-29 18:44 46.37799 25.81210 35279 ft 516 kts 86°
2026-04-29 18:45 46.37935 25.91540 35284 ft 517 kts 86°
2026-04-29 18:45 46.38074 26.01944 35281 ft 517 kts 86°
2026-04-29 18:46 46.38191 26.12352 35286 ft 517 kts 86°
2026-04-29 18:46 46.38286 26.22751 35279 ft 517 kts 86°
2026-04-29 18:47 46.38623 26.27896 35272 ft 510 kts 73°
2026-04-29 18:47 46.39717 26.32721 35270 ft 500 kts 60°
2026-04-29 18:47 46.42864 26.41636 35215 ft 495 kts 53°
2026-04-29 18:48 46.44628 26.45913 34836 ft 495 kts 53°
2026-04-29 18:48 46.46335 26.50300 33849 ft 505 kts 56°
2026-04-29 18:48 46.47919 26.54885 32968 ft 511 kts 58°
2026-04-29 18:48 46.49376 26.59634 32012 ft 520 kts 60°
2026-04-29 18:49 46.50759 26.64525 30992 ft 528 kts 62°
2026-04-29 18:49 46.52127 26.69529 29873 ft 538 kts 62°
2026-04-29 18:49 46.53520 26.74593 28772 ft 542 kts 62°
2026-04-29 18:49 46.54951 26.79668 27741 ft 542 kts 62°
2026-04-29 18:50 46.56406 26.84689 26817 ft 538 kts 62°
2026-04-29 18:50 46.57885 26.89689 25787 ft 538 kts 62°
2026-04-29 18:50 46.59370 26.94672 24761 ft 537 kts 62°
2026-04-29 18:50 46.60852 26.99651 23884 ft 533 kts 62°
2026-04-29 18:51 46.62297 27.04551 23206 ft 523 kts 63°
2026-04-29 18:51 46.63710 27.09389 22489 ft 515 kts 63°
2026-04-29 18:51 46.65095 27.14158 21770 ft 508 kts 63°
2026-04-29 18:51 46.66455 27.18860 21057 ft 500 kts 64°
2026-04-29 18:52 46.67777 27.23431 20327 ft 493 kts 64°
2026-04-29 18:52 46.69099 27.28003 19624 ft 487 kts 64°
2026-04-29 18:52 46.70401 27.32514 18948 ft 480 kts 64°
2026-04-29 18:52 46.71686 27.36968 18223 ft 474 kts 64°
2026-04-29 18:53 46.72953 27.41369 17403 ft 468 kts 65°
2026-04-29 18:53 46.74203 27.45720 16585 ft 463 kts 65°
2026-04-29 18:53 46.75440 27.50024 15783 ft 458 kts 65°
2026-04-29 18:53 46.76664 27.54291 15030 ft 454 kts 65°
2026-04-29 18:54 46.77876 27.58528 14305 ft 451 kts 65°
2026-04-29 18:54 46.79077 27.62736 13683 ft 445 kts 65°
2026-04-29 18:54 46.80239 27.66826 13534 ft 428 kts 65°
2026-04-29 18:54 46.81356 27.70756 13391 ft 411 kts 65°
2026-04-29 18:55 46.82425 27.74527 13254 ft 394 kts 65°
2026-04-29 18:55 46.83449 27.78151 13119 ft 379 kts 65°
2026-04-29 18:55 46.84435 27.81638 12982 ft 364 kts 65°
2026-04-29 18:55 46.85386 27.84993 12847 ft 351 kts 65°
2026-04-29 18:56 46.86306 27.88238 12711 ft 340 kts 65°
2026-04-29 18:56 46.87195 27.91382 12479 ft 332 kts 65°
2026-04-29 18:56 46.88069 27.94476 12147 ft 328 kts 65°
2026-04-29 18:56 46.88933 27.97539 11826 ft 324 kts 65°
2026-04-29 18:57 46.89786 28.00575 11473 ft 322 kts 66°
2026-04-29 18:57 46.90627 28.03585 11132 ft 318 kts 66°
2026-04-29 18:57 46.91460 28.06569 10805 ft 315 kts 66°
2026-04-29 18:57 46.92285 28.09513 10501 ft 311 kts 66°
2026-04-29 18:58 46.93131 28.12401 10178 ft 307 kts 64°
2026-04-29 18:58 46.94041 28.15210 9834 ft 304 kts 62°
2026-04-29 18:58 46.94980 28.17966 9463 ft 301 kts 62°
2026-04-29 18:58 46.95921 28.20691 9112 ft 299 kts 62°
2026-04-29 18:59 46.96849 28.23395 8755 ft 296 kts 62°
2026-04-29 18:59 46.97762 28.26078 8398 ft 293 kts 63°
2026-04-29 18:59 46.98650 28.28708 8081 ft 290 kts 63°
2026-04-29 18:59 46.99521 28.31311 7958 ft 279 kts 63°
2026-04-29 19:00 47.00364 28.33836 7824 ft 274 kts 63°
2026-04-29 19:00 47.01198 28.36339 7695 ft 273 kts 63°
2026-04-29 19:00 47.02027 28.38833 7578 ft 270 kts 63°
2026-04-29 19:00 47.02855 28.41273 7426 ft 266 kts 57°
2026-04-29 19:01 47.04110 28.43200 7316 ft 261 kts 31°
2026-04-29 19:01 47.05783 28.44143 7196 ft 258 kts
2026-04-29 19:01 47.07554 28.43986 7058 ft 256 kts 342°
2026-04-29 19:01 47.09120 28.42793 6938 ft 255 kts 319°
2026-04-29 19:02 47.10224 28.40778 6820 ft 255 kts 296°
2026-04-29 19:02 47.10645 28.39164 6730 ft 256 kts 289°
2026-04-29 19:02 47.11317 28.35802 6546 ft 257 kts 286°
2026-04-29 19:02 47.11775 28.33283 6300 ft 253 kts 286°
2026-04-29 19:03 47.12197 28.30796 6060 ft 249 kts 280°
2026-04-29 19:03 47.12139 28.28292 5818 ft 246 kts 256°
2026-04-29 19:03 47.11433 28.26044 5581 ft 242 kts 233°
2026-04-29 19:03 47.10212 28.24396 5347 ft 239 kts 210°
2026-04-29 19:04 47.08682 28.23570 5119 ft 239 kts 187°
2026-04-29 19:04 47.07037 28.23662 4872 ft 237 kts 163°
2026-04-29 19:04 47.05556 28.24662 4637 ft 235 kts 140°
2026-04-29 19:04 47.04460 28.26401 4403 ft 233 kts 118°
2026-04-29 19:05 47.03832 28.28580 4162 ft 232 kts 105°
2026-04-29 19:05 47.03371 28.30842 4027 ft 232 kts 103°
2026-04-29 19:05 47.02955 28.33118 3987 ft 230 kts 102°
2026-04-29 19:05 47.02550 28.35386 3993 ft 230 kts 102°
2026-04-29 19:06 47.02144 28.37648 4003 ft 230 kts 102°
2026-04-29 19:06 47.01600 28.39855 4007 ft 231 kts 115°
2026-04-29 19:06 46.99904 28.43880 4009 ft 233 kts 122°
2026-04-29 19:07 46.98990 28.45857 3928 ft 235 kts 122°
2026-04-29 19:07 46.98388 28.47161 3842 ft 233 kts 122°
2026-04-29 19:07 46.97182 28.49816 3764 ft 234 kts 121°
2026-04-29 19:07 46.96292 28.51807 3708 ft 233 kts 121°
2026-04-29 19:08 46.95408 28.53807 3608 ft 234 kts 121°
2026-04-29 19:08 46.94558 28.55829 3508 ft 233 kts 118°
2026-04-29 19:08 46.93750 28.57840 3500 ft 233 kts 118°
2026-04-29 19:08 46.92933 28.59890 3504 ft 233 kts 118°
2026-04-29 19:09 46.92279 28.62011 3516 ft 222 kts 101°
2026-04-29 19:09 46.92140 28.64206 3351 ft 213 kts 86°
2026-04-29 19:09 46.92185 28.66316 3194 ft 200 kts 84°
2026-04-29 19:09 46.92235 28.68270 3029 ft 185 kts 84°
2026-04-29 19:10 46.92278 28.70076 2886 ft 172 kts 84°
2026-04-29 19:10 46.92319 28.71827 2762 ft 172 kts 84°
2026-04-29 19:10 46.92360 28.73583 2667 ft 173 kts 85°
2026-04-29 19:10 46.92399 28.75342 2525 ft 171 kts 85°
2026-04-29 19:11 46.92435 28.77005 2336 ft 157 kts 84°
2026-04-29 19:11 46.92469 28.78573 2132 ft 152 kts 84°
2026-04-29 19:11 46.92503 28.80107 1927 ft 150 kts 84°
2026-04-29 19:11 46.92537 28.81627 1720 ft 149 kts 85°
2026-04-29 19:12 46.92570 28.83145 1513 ft 149 kts 84°
2026-04-29 19:12 46.92603 28.84657 1301 ft 149 kts 85°
2026-04-29 19:12 46.92635 28.86174 1090 ft 149 kts 85°
2026-04-29 19:12 46.92655 28.87175 936 ft 148 kts 85°
2026-04-29 19:13 46.92696 28.89188 670 ft 148 kts 85°
2026-04-29 19:13 46.92730 28.90667 471 ft 147 kts 85°
2026-04-29 19:13 46.92761 28.92096 410 ft 126 kts 89°
2026-04-29 19:13 46.92777 28.92984 409 ft 62 kts 88°
2026-04-29 19:14 46.92781 28.93358 408 ft 11 kts 89°
2026-04-29 19:14 46.92830 28.93419 409 ft 12 kts
2026-04-29 19:14 46.92931 28.93414 405 ft 15 kts 358°
2026-04-29 19:14 46.93042 28.93423 409 ft 16 kts
2026-04-29 19:15 46.93158 28.93445 411 ft 17 kts
2026-04-29 19:15 46.93288 28.93470 408 ft 20 kts
2026-04-29 19:15 46.93400 28.93488 408 ft 10 kts
2026-04-29 19:15 46.93431 28.93411 408 ft 10 kts 279°
2026-04-29 19:16 46.93437 28.93312 408 ft 6 kts 266°
2026-04-29 19:16 46.93405 28.93285 408 ft 6 kts 188°
2026-04-29 19:16 46.93392 28.93284 408 ft 1 kts 184°
2026-04-29 19:16 46.93390 28.93284 408 ft 0 kts 184°